Theta_e
329 327 328 328 327 330 334 333 336 338 339 341 340 339 340 339 341 342 339 340 336 337 340 339 334 332 332 332 332 332 332 329 322 318 319 323 327 327 327 327 327 327 327 327
326 328 328 328 329 332 334 335 339 338 338 337 340 340 338 336 337 335 339 336 337 338 338 337 338 334 333 333 332 332 332 328 328 320 320 322 322 324 325 326 327 327 327 328
328 328 329 328 327 330 332 332 334 337 338 338 338 341 337 336 337 338 338 338 338 336 338 333 339 338 336 333 332 333 335 331 329 322 325 321 321 323 328 328 327 326 327 324
328 328 328 327 327 328 329 332 336 337 334 339 336 340 339 338 342 338 338 338 338 337 338 329 332 341 338 334 333 334 335 335 329 324 326 324 328 328 328 327 327 327 325 325
327 327 327 328 327 328 328 334 335 336 336 335 340 339 341 338 342 339 337 338 338 339 338 336 333 334 341 337 336 336 335 335 330 329 327 326 322 329 330 328 328 325 326 326
327 329 329 327 327 327 329 333 330 331 332 337 338 341 341 340 340 340 336 334 337 342 338 338 338 338 341 339 339 339 339 334 331 331 328 329 329 330 330 329 327 328 325 325
326 327 328 329 329 327 328 329 332 333 335 339 336 337 337 336 339 337 336 335 337 342 338 338 338 339 341 341 341 340 336 334 335 334 330 329 326 327 325 325 328 327 325 325
327 327 328 330 332 328 332 330 330 337 337 336 337 342 339 336 337 337 336 335 335 338 342 339 339 340 340 342 341 339 336 335 336 332 329 328 329 324 328 329 330 330 325 324
328 329 328 333 333 332 334 332 330 332 333 336 338 339 337 335 337 336 338 338 335 338 341 339 339 339 338 339 341 335 335 338 337 335 331 335 334 333 329 329 330 331 328 328
328 328 329 334 332 331 332 332 330 329 336 342 340 341 336 339 339 339 338 339 338 336 339 339 339 337 334 337 341 338 333 338 339 334 330 329 333 335 332 330 331 328 329 330
326 325 327 333 333 332 330 331 332 330 333 338 343 339 333 337 337 333 335 337 335 335 338 339 338 336 335 334 340 342 335 338 339 339 337 333 331 332 330 332 331 331 331 330
332 327 329 332 332 331 333 335 331 330 337 335 336 337 336 337 337 336 335 337 337 335 338 338 336 336 337 337 340 341 339 339 338 338 336 333 331 327 329 328 332 329 331 329
332 329 338 336 331 329 334 333 332 330 328 333 335 337 335 336 336 336 334 336 336 334 338 337 337 336 337 339 339 339 340 339 339 338 335 335 333 331 329 328 331 329 327 326
335 333 336 335 333 331 335 333 331 328 330 334 336 338 338 336 334 336 336 337 335 335 335 335 335 334 338 338 337 334 341 336 338 335 335 336 332 331 327 328 328 328 328 327
336 337 335 334 334 335 334 332 332 332 334 339 338 337 335 333 333 337 338 336 337 337 337 336 336 336 336 338 337 336 340 339 337 337 334 334 333 329 327 327 327 328 327 326
331 332 335 331 335 335 334 334 334 334 334 337 337 340 335 336 338 337 337 337 337 337 337 337 337 337 337 337 337 339 328 331 335 332 333 333 332 331 328 328 329 327 328 328
333 335 333 334 336 335 334 337 335 336 342 340 342 339 335 334 335 335 337 337 336 336 335 337 338 335 338 338 338 336 335 327 328 329 331 331 333 330 329 329 329 328 329 328
335 334 333 332 335 337 332 335 335 341 344 340 339 337 335 335 336 335 337 335 333 335 336 335 335 338 337 334 335 337 335 332 327 328 329 328 328 326 327 327 328 328 326 323
330 332 336 333 335 336 336 337 338 345 345 341 337 335 335 334 333 336 334 334 334 336 335 336 337 337 337 334 332 336 332 330 328 329 331 325 328 324 322 321 321 321 321 320
330 330 333 329 332 340 341 336 332 336 339 340 336 335 335 334 332 331 334 334 334 336 336 337 338 337 337 335 336 335 330 329 327 327 326 326 323 320 318 316 318 319 317 317
330 334 335 330 331 340 338 338 334 340 338 337 336 334 334 332 334 333 332 335 337 338 338 338 338 336 336 332 334 333 332 330 330 324 322 321 319 319 316 312 315 317 316 315
329 333 335 336 340 344 339 334 342 339 339 337 336 335 335 335 333 333 335 337 336 337 338 337 336 333 333 336 334 333 332 330 325 321 319 319 314 316 315 315 316 316 316 317
337 330 334 336 335 333 338 332 342 338 337 334 336 335 334 334 334 335 337 337 336 335 336 335 334 334 336 335 332 330 328 325 322 321 319 316 315 317 316 316 315 317 317 317
332 332 336 336 334 334 335 340 339 336 336 336 336 334 334 335 335 335 336 336 334 333 335 335 336 335 334 334 331 328 325 321 320 318 317 314 312 314 316 315 317 316 318 318
333 334 333 333 332 335 336 339 337 337 337 336 336 335 336 335 336 336 335 335 334 334 335 335 333 333 333 332 330 327 324 322 321 317 313 313 313 312 312 317 316 317 317 317
334 335 334 335 333 331 340 339 338 337 336 336 336 335 336 336 335 335 334 334 334 334 334 326 324 328 330 329 327 325 324 319 314 313 312 309 308 308 312 315 316 317 317 316
Wind_Speed
6 6 6 14 7 7 5 0 7 2 10 7 9 4 4 9 13 8 18 8 12 16 10 31 30 32 30 29 27 21 14 12 11 12 9 7 4 4 2 2 4 6 9 12
7 3 7 12 14 6 6 9 4 3 2 6 4 6 4 6 1 11 18 8 17 21 10 3 20 29 29 29 26 18 11 13 13 11 11 8 6 2 3 4 7 9 10 11
2 8 12 8 10 5 1 7 6 6 4 5 7 2 3 3 7 5 9 21 22 16 12 11 2 17 26 28 23 16 11 13 12 12 10 6 5 5 5 7 7 8 8 4
4 8 7 13 6 1 1 4 9 11 4 3 1 2 7 5 8 5 14 16 10 5 6 12 10 8 23 23 19 13 13 11 13 12 10 7 7 5 5 4 3 5 3 4
6 7 11 11 6 2 8 4 10 5 5 6 4 6 7 7 5 5 21 16 15 7 4 6 6 9 4 15 15 12 13 11 14 13 12 10 8 7 6 5 4 3 6 7
5 6 4 5 10 6 5 8 8 5 3 4 2 7 5 4 1 6 21 23 14 13 5 2 4 6 1 9 9 7 10 10 14 15 15 11 10 10 8 7 7 6 6 7
7 6 6 3 8 7 6 6 4 5 5 2 3 5 5 4 5 15 19 27 11 15 11 7 2 1 3 3 4 5 6 10 11 12 15 13 10 11 9 8 8 5 8 6
2 9 5 6 4 4 4 7 5 3 2 2 6 2 2 7 17 25 31 31 29 14 17 9 6 4 5 4 2 3 4 8 7 6 10 12 12 10 11 9 10 9 8 6
4 6 3 5 1 2 3 5 2 6 4 4 3 1 5 7 10 20 21 16 23 12 25 14 10 7 5 4 3 2 8 5 8 8 8 7 8 11 12 11 9 9 10 8
5 2 3 4 5 4 5 2 4 3 3 2 4 4 3 8 12 9 17 23 24 19 26 18 15 8 2 5 6 7 10 9 9 9 4 10 10 14 10 12 9 6 7 7
5 4 6 2 1 3 4 2 6 4 4 5 4 5 7 8 10 7 18 16 12 20 24 21 16 11 5 5 10 12 13 13 16 14 12 12 11 17 13 12 12 8 8 9
1 5 1 5 4 5 3 3 5 5 2 2 4 5 6 9 12 11 16 13 15 21 26 22 14 10 13 12 15 16 16 17 14 13 13 10 8 6 11 14 13 10 11 13
3 2 3 10 6 6 3 2 2 4 3 3 5 5 2 7 15 18 21 28 20 15 23 19 15 15 18 18 16 18 17 18 17 16 12 8 5 7 7 7 9 8 6 6
3 4 6 5 7 4 3 9 5 6 4 2 2 2 5 4 7 15 18 17 9 4 6 12 18 17 24 22 18 16 26 13 16 13 11 10 7 5 4 4 4 7 9 13
4 3 3 4 6 3 2 9 13 13 2 6 3 2 5 5 6 4 21 17 10 9 11 14 12 16 20 27 25 26 14 11 10 7 9 9 6 6 5 7 8 11 13 14
5 1 3 6 4 3 2 6 5 4 5 8 8 1 3 4 13 17 17 15 15 15 17 21 21 24 27 20 18 9 29 22 10 14 14 9 9 9 8 11 13 12 15 14
3 2 3 3 3 1 3 2 4 4 7 6 4 3 1 5 13 15 14 14 15 17 20 17 17 26 21 8 6 11 13 14 4 2 6 11 12 12 14 14 14 13 12 11
4 1 2 2 3 1 4 7 8 10 5 7 5 2 4 5 5 15 13 12 16 17 12 13 15 13 7 18 18 3 6 3 8 6 8 10 5 8 9 8 10 11 12 15
10 4 2 2 1 5 3 2 3 3 3 3 6 2 10 8 9 10 12 15 16 12 14 14 11 14 19 17 9 8 9 10 12 7 2 6 15 5 5 7 9 13 14 16
4 2 4 3 2 5 6 5 7 7 5 4 9 5 4 6 4 5 13 15 15 12 13 14 10 12 15 11 4 11 13 8 8 12 11 8 2 5 12 15 12 13 14 15
1 1 5 3 3 5 5 10 9 5 7 12 8 5 3 1 1 10 15 12 10 9 11 12 12 12 10 4 8 12 12 6 9 7 5 3 1 10 8 11 11 12 14 11
6 5 4 3 3 4 11 7 7 8 17 14 10 7 3 1 6 10 10 8 11 11 13 13 13 13 7 5 8 8 7 5 3 3 3 4 7 8 13 14 14 14 14 10
1 6 4 4 5 4 11 4 9 18 20 11 10 8 6 6 7 7 7 10 12 13 12 11 16 15 7 8 9 8 4 3 6 4 3 10 9 11 16 15 12 13 14 14
2 1 3 3 7 13 3 7 10 14 7 9 13 8 3 3 3 5 6 8 11 12 11 12 14 13 12 9 8 1 4 5 1 4 9 10 11 12 14 13 12 15 15 15
3 4 3 1 7 8 7 11 13 9 8 16 9 4 3 1 1 4 5 8 10 10 8 11 12 13 12 9 7 3 5 9 10 11 12 14 15 16 13 13 12 14 15 17
5 6 4 6 11 7 15 16 14 14 15 10 8 5 4 1 3 2 6 7 9 11 12 13 12 13 12 11 9 7 10 11 12 16 19 18 16 13 11 11 13 13 16 17
Wind_Direction
357 6 324 306 246 190 209 72 132 96 127 73 135 115 302 151 245 289 271 241 278 335 279 240 229 230 225 225 223 217 208 214 212 208 191 175 163 190 208 262 259 257 295 327
8 303 277 340 356 173 107 119 119 92 65 77 210 161 251 102 271 322 280 316 299 303 349 58 243 228 225 223 214 209 210 223 221 206 197 195 173 173 236 257 254 244 287 313
174 270 321 5 353 37 45 145 188 144 133 71 156 72 65 26 167 349 301 305 302 284 250 48 355 237 226 217 210 210 224 231 224 206 207 202 183 219 243 261 263 258 292 331
274 303 342 336 332 298 336 194 111 131 123 113 147 343 2 310 328 30 288 320 310 205 102 56 33 245 229 214 210 219 232 252 216 210 205 180 196 199 218 247 245 286 314 342
263 315 323 323 265 8 240 46 128 115 95 107 334 69 292 321 347 278 291 315 335 197 97 61 54 23 279 218 219 237 244 252 212 217 213 205 198 218 246 230 287 272 296 278
241 286 232 234 290 251 193 84 43 56 75 58 214 128 281 256 266 309 265 278 302 196 155 139 77 18 181 197 220 248 269 219 214 218 218 218 220 226 232 233 245 246 273 262
332 284 289 331 347 308 95 59 12 15 20 187 330 87 213 220 184 222 255 275 281 201 193 182 210 33 237 233 241 264 235 210 216 223 223 226 233 240 244 232 239 248 273 272
260 333 26 319 95 261 89 135 145 184 178 180 356 144 204 216 213 240 246 248 263 249 200 183 207 203 215 227 259 267 182 189 212 213 225 240 239 235 225 227 249 254 272 265
180 264 351 51 11 44 344 44 141 101 61 77 274 353 327 278 251 257 261 261 254 266 211 190 197 224 201 195 231 202 198 184 208 225 257 245 241 248 250 263 270 258 261 262
251 317 315 318 57 7 106 165 35 18 104 141 308 292 222 255 264 258 262 256 263 266 201 197 204 209 223 221 226 207 196 203 239 242 304 264 242 250 248 261 267 261 256 270
169 118 295 16 305 200 330 55 53 109 135 145 168 255 226 236 224 249 232 220 260 207 201 208 211 216 209 241 236 227 205 207 225 246 260 301 248 259 250 242 258 261 269 271
14 131 50 266 314 229 149 181 137 117 236 199 149 258 233 245 257 263 263 268 287 220 211 211 221 238 236 226 233 232 219 215 217 235 257 284 228 274 258 246 250 270 280 283
183 15 26 342 353 6 12 237 180 115 84 189 120 256 238 261 280 281 276 281 296 226 218 219 227 248 247 239 230 236 226 229 226 222 241 232 261 266 279 272 262 261 239 266
98 107 141 183 234 213 354 31 75 135 91 244 21 23 339 284 270 298 302 276 267 232 322 312 301 281 243 247 246 234 224 213 220 219 236 232 243 237 224 199 217 256 257 278
88 111 130 220 40 43 26 93 77 62 269 110 267 354 293 264 248 183 64 87 55 3 1 2 357 325 290 252 254 242 214 226 213 233 240 235 232 213 235 221 231 246 265 278
0 354 47 354 64 17 104 64 89 122 174 114 130 171 274 76 82 57 52 44 35 29 9 354 348 342 333 289 261 321 31 305 26 2 299 267 264 243 237 238 243 260 265 268
54 64 67 277 8 36 339 16 18 331 35 125 152 188 71 50 70 53 43 42 20 1 358 360 341 328 334 317 277 272 307 317 273 264 270 263 243 252 241 243 253 265 263 279
81 72 105 237 27 261 235 206 188 124 103 74 79 82 49 72 103 31 44 28 8 359 358 346 345 342 336 331 309 351 313 106 323 223 158 112 162 309 285 262 267 272 286 303
150 134 58 116 164 288 279 202 245 151 196 93 128 67 45 41 36 35 22 17 7 6 360 355 2 344 326 328 322 308 331 313 325 326 187 291 253 292 288 294 289 295 302 305
82 86 136 133 157 210 241 140 114 71 330 119 119 83 39 34 41 276 1 2 3 1 357 355 354 6 345 340 299 307 333 8 31 1 316 292 176 329 326 313 298 301 305 302
159 202 171 144 173 270 253 133 125 99 231 172 147 124 44 52 294 356 1 6 18 22 7 360 8 20 6 334 305 312 314 295 341 354 87 153 154 287 307 321 309 308 314 303
173 138 193 94 110 251 196 133 170 179 161 167 170 161 166 40 10 13 22 34 14 24 13 8 2 1 12 11 339 335 330 18 17 43 119 309 308 314 331 333 329 327 328 324
141 178 174 149 214 308 206 240 151 162 159 165 171 174 141 97 54 38 35 29 36 17 18 11 3 6 5 346 357 13 85 33 38 34 312 312 313 318 330 328 327 334 330 306
301 19 102 91 341 352 242 145 162 161 166 171 171 160 135 93 33 27 23 24 27 19 9 1 1 359 352 358 2 28 3 13 332 289 312 315 315 313 316 309 317 318 308 305
226 9 110 310 278 3 119 166 179 185 196 161 153 152 144 247 5 356 24 5 0 360 2 357 356 8 8 351 342 323 338 337 323 323 332 330 323 317 306 305 311 311 313 307
195 173 146 219 206 180 195 195 207 204 182 187 184 152 166 271 346 344 348 339 342 348 349 357 5 4 358 354 351 340 331 334 338 338 332 328 327 325 330 324 321 318 315 308